Tracking 25734 objects as of 27-May-2022
HD Live streaming from Space Station
objects crossing your sky now

COSMOS 1818 COOLANT

Track COSMOS 1818 COOLANT now!
10-day predictions


NORAD ID: 46467
Int'l Code: 1987-011AK
Perigee: 771.8 km
Apogee: 797.6 km
Inclination: 65.0 °
Period: 100.4 minutes
Semi major axis: 7155 km
RCS: Unknown
Launch date: February 1, 1987
Source: Commonwealth of Independent States (former USSR) (CIS)
Launch site: TYURATAM MISSILE AND SPACE COMPLEX (TTMTR)

Note: This is SATELLITE DEBRIS
aabbcc
Your satellite tracking list
Your tracking list is empty




NASA's NSSDC Master Catalog

Two Line Element Set (TLE):
1 46467U 87011AK  22141.18981591  .00000911  00000-0  35910-3 0  9998
2 46467  65.0052  59.4775 0018041 259.1597 100.7459 14.34243908444675
Source of the keplerian elements: AFSPC